TimeMST,TemperatureF,Dew PointF,Humidity,Sea Level PressureIn,VisibilityMPH,Wind Direction,Wind SpeedMPH,Gust SpeedMPH,PrecipitationIn,Events,Conditions,WindDirDegrees,DateUTC
12:56 AM,37.0,-2.0,19,29.99,10.0,Calm,Calm,-,N/A,,Clear,0,2013-04-24 07:56:00
1:56 AM,33.1,-2.0,22,29.98,10.0,South,3.5,-,N/A,,Clear,190,2013-04-24 08:56:00
2:56 AM,34.0,-0.0,24,29.97,10.0,Calm,Calm,-,N/A,,Clear,0,2013-04-24 09:56:00
3:56 AM,32.0,1.9,28,29.97,10.0,Calm,Calm,-,N/A,,Clear,0,2013-04-24 10:56:00
4:56 AM,30.9,3.9,32,29.98,10.0,East,4.6,-,N/A,,Clear,100,2013-04-24 11:56:00
5:56 AM,34.0,-2.0,22,29.99,10.0,ESE,6.9,-,N/A,,Clear,120,2013-04-24 12:56:00
6:56 AM,37.9,-2.0,18,30.00,10.0,ESE,4.6,-,N/A,,Clear,120,2013-04-24 13:56:00
7:56 AM,45.0,-2.0,14,30.01,10.0,SE,4.6,-,N/A,,Clear,130,2013-04-24 14:56:00
8:56 AM,50.0,-2.9,11,30.04,10.0,Variable,3.5,-,N/A,,Clear,0,2013-04-24 15:56:00
9:56 AM,55.9,-0.9,10,29.99,10.0,North,4.6,-,N/A,,Clear,10,2013-04-24 16:56:00
10:56 AM,62.1,1.0,9,29.97,10.0,WNW,5.8,-,N/A,,Clear,300,2013-04-24 17:56:00
11:56 AM,66.0,5.0,9,29.94,10.0,NW,5.8,-,N/A,,Clear,310,2013-04-24 18:56:00
12:56 PM,72.0,8.1,8,29.92,10.0,Variable,6.9,-,N/A,,Clear,0,2013-04-24 19:56:00
1:56 PM,73.9,10.9,9,29.90,10.0,Variable,4.6,-,N/A,,Clear,0,2013-04-24 20:56:00
2:56 PM,75.9,12.9,9,29.88,10.0,WSW,13.8,19.6,N/A,,Clear,250,2013-04-24 21:56:00
3:56 PM,73.9,16.0,11,29.88,10.0,SW,11.5,17.3,N/A,,Clear,230,2013-04-24 22:56:00
4:56 PM,73.0,12.9,10,29.88,10.0,SW,9.2,-,N/A,,Clear,230,2013-04-24 23:56:00
5:56 PM,72.0,12.0,10,29.88,10.0,SSW,11.5,-,N/A,,Clear,210,2013-04-25 00:56:00
6:56 PM,69.1,15.1,13,29.89,10.0,SSW,13.8,-,N/A,,Clear,210,2013-04-25 01:56:00
7:56 PM,60.1,15.1,17,29.91,10.0,SSW,9.2,-,N/A,,Clear,210,2013-04-25 02:56:00
8:56 PM,59.0,18.0,20,29.91,10.0,SSW,8.1,-,N/A,,Clear,200,2013-04-25 03:56:00
9:56 PM,57.0,19.0,23,29.90,10.0,SW,9.2,-,N/A,,Clear,220,2013-04-25 04:56:00
10:56 PM,55.9,19.0,24,29.88,10.0,SW,3.5,-,N/A,,Clear,220,2013-04-25 05:56:00
11:56 PM,55.9,19.9,25,29.88,10.0,Calm,Calm,-,N/A,,Clear,0,2013-04-25 06:56:00